Location: Weymouth Pines Observatory
(42.9326°N, 81.3883°W)
Time: 01:21:45
(UTC-04:00)

Daily predictions for brighter satellites

Satellite Brightness Start Highest point End
(mag) Time Altitude Azimuth Time Altitude Azimuth Time Altitude Azimuth
Cosmos 1943 Rocket 4.3 00:10:18 22° N 00:10:18 22° N 00:12:39 10° N
H-2A R/B 4.5 00:11:38 17° WNW 00:11:38 17° WNW 00:13:27 10° NW
CZ-4C R/B 4.4 00:33:39 22° NNW 00:33:39 22° NNW 00:38:19 10° NNE
ATLAS 3B R/B 4.2 00:54:09 33° N 00:54:09 33° N 00:58:13 10° NNE
CENTAUR R/B 4.3 02:23:02 27° NE 02:23:02 27° NE 02:26:02 10° NE
Resurs 1-4 Rocket 4.5 02:52:05 10° NE 02:53:58 17° ENE 02:53:58 17° ENE
CZ-2D R/B 4.2 03:04:09 10° NE 03:06:59 23° ENE 03:06:59 23° ENE
Cosmos 2322 Rocket 3.9 03:14:58 29° NNE 03:14:58 29° NNE 03:17:38 10° NNE
SL-16 R/B 3.7 03:22:22 32° NNE 03:22:22 32° NNE 03:25:21 10° NNE
SL-16 R/B 3.4 03:21:35 45° NNE 03:21:35 45° NNE 03:26:13 10° N
ARIANE 5 R/B 4.2 03:26:15 10° NNE 03:29:06 29° NE 03:29:06 29° NE
Cosmos 2360 Rocket 3.3 03:42:22 40° ENE 03:42:22 40° ENE 03:46:15 10° NNE
Cosmos 1980 Rocket 4.1 03:43:56 21° NNW 03:43:56 21° NNW 03:46:38 10° N
ATLAS 5 CENTAUR R/B 4.4 03:42:32 10° NNW 03:47:14 24° NE 03:52:17 10° E
ADEOS Rocket 3.4 03:51:03 10° NNE 03:55:33 51° ENE 03:55:33 51° ENE
CENTAUR R/B 3.7 04:10:12 31° NW 04:10:31 31° NW 04:16:44 10° NNE
COBE Rocket 4.5 04:10:44 10° NNE 04:15:12 59° ENE 04:15:12 59° ENE
Cosmos 2333 Rocket 4.1 04:19:44 18° SE 04:22:20 24° ESE 04:26:51 10° NE
USA 215 4.2 04:18:16 10° E 04:24:24 45° NNE 04:30:32 10° NW
Cosmos 2322 3.8 04:26:35 71° NNW 04:26:35 71° NNW 04:31:50 10° NNE
DELTA 2 R/B (1) 3.9 04:34:43 53° SE 04:34:43 53° SE 04:39:21 10° E
Resurs 1-4 Rocket 2.8 04:31:07 10° N 04:35:04 42° NNW 04:35:04 42° NNW
Cosmos 2327 Rocket 4.3 04:35:52 10° N 04:42:08 78° W 04:43:10 62° SSW
Cosmos 1844 4.3 04:37:13 10° NNW 04:42:54 57° ENE 04:48:28 10° SE
MOS 1 Rocket 3.6 04:39:29 10° NNE 04:44:02 56° E 04:44:28 53° SE
Cosmos 2333 4.3 04:44:35 58° S 04:45:37 73° ESE 04:51:20 10° NNE
Nadezhda 1 Rocket 3.8 04:47:12 52° S 04:48:48 90° NW 04:54:55 10° N
CZ-2D R/B 2.9 04:43:55 10° N 04:48:20 39° NW 04:48:20 39° NW
Cosmos 1610 Rocket 4.4 04:44:02 10° N 04:50:21 89° W 04:54:23 24° S
CZ-4B R/B 4.5 04:47:50 10° NNE 04:53:04 38° E 04:58:11 10° SSE
Cosmos 2208 Rocket 4.0 04:52:22 66° SSW 04:53:10 89° WNW 04:58:39 10° NNE
ADEOS II 3.3 04:49:39 10° NNE 04:54:35 40° E 04:59:01 12° SSE
Cosmos 2322 Rocket 3.9 04:56:47 18° NW 04:56:47 18° NW 05:00:34 10° N
Meteor 1-18 Rocket 4.3 04:57:27 54° W 04:57:33 54° WNW 05:03:05 10° N
SL-16 R/B 4.0 05:06:39 20° WNW 05:06:39 20° WNW 05:09:10 10° NW
SL-16 R/B 4.0 05:04:14 17° NW 05:04:33 17° NW 05:08:10 10° N
Cosmos 2219 Rocket 2.4 05:02:21 36° S 05:04:38 68° ESE 05:10:12 10° NNE
Cosmos 2074 Rocket 4.2 04:59:27 10° NNW 05:05:23 47° W 05:05:52 46° WSW
Cosmos 1844 Rocket 2.5 05:03:07 10° NNW 05:08:42 71° WSW 05:14:13 10° SSE
Cosmos 1867 3.8 05:04:13 10° NNW 05:09:42 72° NE 05:15:06 10° SE
ARIANE 5 R/B 3.8 05:05:53 10° N 05:09:28 25° NW 05:09:28 25° NW
Meteor 1-13 Rocket 4.2 05:08:27 29° S 05:11:26 84° E 05:17:07 10° NNE
Cosmos 468 Rocket 4.4 05:10:37 24° S 05:13:38 60° ESE 05:18:48 10° NNE
CZ-4B R/B 2.9 05:11:52 10° NNE 05:15:30 67° ESE 05:16:29 45° SSE
COSMOS 2428 2.9 05:17:41 42° WSW 05:19:14 56° WNW 05:24:50 10° NNE
Cosmos 1898 Rocket 3.5 05:14:30 10° NNW 05:19:44 81° ENE 05:24:54 10° SSE
Cosmos 2341 Rocket 4.0 05:13:50 10° N 05:20:07 87° E 05:26:19 10° S
Okean O Rocket 1.6 05:16:07 10° NNE 05:20:36 82° ESE 05:22:51 29° S
Cosmos 2150 Rocket 4.4 05:17:16 10° NNW 05:22:34 67° ENE 05:27:54 10° SSE
Cosmos 1570 Rocket 4.4 05:23:36 39° W 05:24:36 43° WNW 05:29:36 10° N
Cosmos 2360 Rocket 3.4 05:24:08 24° WNW 05:25:04 25° NW 05:29:44 10° N
Cosmos 1340 4.4 05:28:08 20° NW 05:28:08 20° NW 05:30:02 10° NNW
Meteor 2-19 Rocket 4.4 05:24:53 10° N 05:31:01 89° E 05:37:04 10° S
Cosmos 2278 Rocket 2.3 05:26:30 10° NNW 05:32:12 77° ENE 05:37:52 10° SSE
ATLAS 5 CENTAUR R/B 2.3 05:26:36 10° NW 05:32:38 85° SW 05:39:10 10° SSE
Cosmos 1763 Rocket 4.3 05:31:08 10° S 05:36:01 50° ESE 05:40:58 10° NNE
PSLV R/B 3.9 05:32:21 10° N 05:36:01 49° WNW 05:36:42 43° WSW
Cosmos 2237 Rocket 2.4 05:32:19 15° SSW 05:37:05 73° ESE 05:42:47 10° NNE
Cosmos 858 Rocket 4.4 05:33:31 10° NNW 05:38:48 80° WSW 05:44:02 10° SSE
Okean-O 4.2 05:35:42 10° NNE 05:39:48 36° E 05:43:53 10° SSE
ADEOS Rocket 4.1 05:37:43 10° NNW 05:41:35 20° WNW 05:42:30 19° WNW
Cosmos 1666 2.7 05:37:58 10° NNW 05:41:49 60° W 05:45:38 10° S
SL-8 R/B 3.6 05:40:14 21° WNW 05:43:23 80° SSW 05:48:09 10° ESE
Cosmos 1937 Rocket 3.5 05:38:51 10° NNW 05:44:12 86° WSW 05:49:29 10° SSE
Cosmos 1295 Rocket 4.4 05:40:57 10° NNW 05:47:09 73° W 05:53:14 10° S
Cosmos 2285 Rocket 4.0 05:45:57 13° SSW 05:51:43 74° WNW 05:58:11 10° NNE
PSLV R/B 3.5 05:47:30 10° N 05:51:50 65° WNW 05:55:36 13° SSW
Cosmos 841 Rocket 4.1 05:47:39 10° S 05:52:41 57° ESE 05:57:43 10° NNE
Cosmos 405 Rocket 2.8 05:49:06 10° S 05:53:09 89° E 05:57:09 10° N
Meteor 2-4 Rocket 3.6 05:49:20 10° SSW 05:54:51 65° WNW 06:00:15 10° N
CZ-2C R/B 3.7 05:51:30 10° S 05:55:58 56° W 06:00:24 10° NNW
Cosmos 1743 3.9 05:53:43 10° NW 05:56:39 23° W 05:56:39 23° W
Cosmos 2058 Rocket 3.6 05:59:27 10° N 06:03:54 63° E 06:08:17 10° SSE
IRS-1C Rocket 4.4 05:59:44 10° N 06:04:47 48° WNW 06:09:48 10° SW
Meteor PRIRODA 3.6 06:01:01 10° N 06:04:48 81° WNW 06:08:33 10° SSW
GPS 2-04 Rocket1 4.1 06:02:49 17° SW 06:04:57 27° S 06:08:16 10° ESE
Cosmos 2366 rocket 4.1 05:58:57 10° N 06:05:21 88° E 06:11:42 10° S
Cosmos 2333 Rocket 2.5 06:01:47 16° SW 06:06:13 51° WNW 06:11:51 10° NNE
CZ-4C R/B 3.8 05:59:45 10° NNW 06:06:33 50° NE 06:14:04 10° ESE
USA 215 3.2 06:00:42 10° SE 06:07:12 69° SW 06:13:44 10° NW
Timation 1 Rocket 4.3 06:02:31 10° NNW 06:08:33 83° WSW 06:14:31 10° SSE
Cosmos 1814 Rocket 4.0 06:04:23 11° SSW 06:09:22 59° WNW 06:14:28 10° NNE
Meteor 1-15 Rocket 4.3 06:04:55 10° NNW 06:10:49 69° W 06:16:40 10° S
ERBS 3.2 06:07:38 10° NW 06:11:04 51° NE 06:14:28 10° ESE
Cosmos 1606 Rocket 3.6 06:10:39 10° NNW 06:15:05 60° W 06:19:28 10° S
RUBIN 8/PSLV 4.5 06:10:49 10° N 06:15:06 73° WNW 06:19:23 10° SSW
Aureole 2 Rocket 3.1 06:14:51 16° WSW 06:17:03 32° WNW 06:20:02 10° N
OTV 4 2.1 06:16:08 13° SSW 06:17:51 21° SSE 06:20:02 10° ESE
Okean 1-7 Rocket 4.4 06:15:40 11° SW 06:19:29 31° WNW 06:23:28 10° NNW
Cosmos 1346 3.3 06:16:57 10° S 06:19:45 66° E 06:22:35 10° NNE
DELTA 2 R/B (1) 3.8 06:15:28 14° W 06:20:06 57° S 06:25:31 10° ESE
Meteor 1-31 Rocket 2.6 06:16:19 10° N 06:20:07 73° WNW 06:23:55 10° SSW
ERS-2 2.2 06:19:15 10° N 06:22:55 61° WNW 06:26:34 10° SSW
USA 229 DEB 4.2 06:17:11 13° WSW 06:23:01 45° NW 06:29:41 10° NNE
USA 229 4.2 06:17:16 13° WSW 06:23:07 45° NW 06:29:47 10° NNE
Iridium 2 4.1 06:20:32 10° NNW 06:24:10 41° W 06:27:46 10° SSW
SJ-6F 4.5 06:20:28 10° NNE 06:24:34 84° ESE 06:28:39 10° SSW
Cosmos 2228 3.0 06:23:35 10° N 06:27:57 87° W 06:32:19 10° S
CZ-4B R/B 4.1 06:28:35 10° N 06:33:30 32° WNW 06:38:19 10° SW
SL-8 Rocket 4.4 06:27:51 10° NNW 06:33:36 41° W 06:39:17 10° SSW
ADEOS II 3.1 06:29:43 10° N 06:34:07 28° WNW 06:38:30 10° WSW
Nadezhda 3 Rocket 4.4 06:28:18 10° S 06:34:23 69° E 06:40:32 10° NNE
Hubble Space Telescope 3.2 06:33:39 10° SSW 06:34:40 11° S 06:35:40 10° SSE
NOSS 3-1 (A) 3.5 06:29:07 10° SSW 06:34:56 88° ESE 06:41:30 10° NE
NOSS 3-1 (C) 3.5 06:30:04 10° SW 06:35:51 71° NW 06:42:25 10° NNE
SL-16 R/B 2.3 06:30:14 10° SSW 06:35:54 88° WNW 06:41:38 10° NNE
Cosmos 1437 Rocket 3.0 06:33:32 10° N 06:37:39 78° E 06:41:41 10° SSE
Okean 2 4.3 06:35:21 10° SW 06:39:04 30° WNW 06:42:47 10° NNW
Cosmos 1025 Rocket 4.2 06:35:37 10° SW 06:39:11 24° WNW 06:42:48 10° NNW
Feng Yun 1-1 Rocket 4.4 06:33:51 10° N 06:39:38 65° WNW 06:45:15 10° SSW
